This demonstration page uses our WeatherBlox Daily Observations layout. Learn more.

Left ArrowRight Arrow

39.92423, -83.80882

Hourly Observations for February 2, 2022

Temp ( °F °C ) Dew Point ( °F °C ) Humidity (%) Winds ( mph kmh ) Pressure ( in mb ) Visibility ( mi km ) Precip ( " mm )
12:56 am 00:56 Clear 45 7.2 28 -2.2 52 52 S 9 15 30.08 1019 10 16 0.00 0.00
1:56 am 01:56 Clear 45 7.2 28 -2.2 52 52 S 9 15 30.07 1018 10 16 0.00 0.00
2:56 am 02:56 Clear 45 7.2 29 -1.7 54 54 S 9 15 30.09 1019 10 16 0.00 0.00
3:56 am 03:56 Mostly Clear 45 7.2 28 -2.2 52 52 S 10 17 30.08 1019 10 16 0.00 0.00
4:56 am 04:56 Cloudy 45 7.2 28 -2.2 52 52 S 8 13 30.08 1019 10 16 0.00 0.00
5:56 am 05:56 Mostly Cloudy 41 5 29 -1.7 62 62 S 7 11 30.10 1019 10 16 0.00 0.00
6:56 am 06:56 Cloudy 42 5.6 29 -1.7 60 60 S 5 7 30.12 1020 10 16 0.00 0.00
7:56 am 07:56 Cloudy with Light Rain 41 5 31 -0.6 67 67 S 5 7 30.15 1021 10 16 0.00 0.00
8:56 am 08:56 Cloudy with Light Rain 40 4.4 40 4.4 100 100 SSW 7 11 30.16 1021 7 11 0.00 0.00
9:56 am 09:56 Cloudy with Light Rain 39 4 N/A N/A SSE 7 11 30.16 1021 7 11 0.00 0.00
10:56 am 10:56 Cloudy with Light Rain 39 4 N/A N/A SSE 12 19 30.15 1021 6 10 0.00 0.00
11:35 am 11:35 Cloudy with Light Rain 39 4 N/A N/A SE 8 13 30.15 1021 5 8 0.00 0.00
11:49 am 11:49 Cloudy with Light Rain 39 4 N/A N/A SE 13 20 30.13 1020 6 10 0.00 0.00
11:56 am 11:56 Cloudy with Light Rain 41 5 N/A N/A SE 15 24 30.11 1020 7 11 0.00 0.00
12:06 pm 12:06 Cloudy with Light Rain 41 5 N/A N/A SSE 14 22 30.12 1020 8 13 0.00 0.00
12:56 pm 12:56 Cloudy with Light Rain 41 5 N/A N/A SSE 16 26 30.07 1018 7 11 0.00 0.00
1:56 pm 13:56 Cloudy with Rain 39 4 N/A N/A SSE 12 19 30.05 1018 8 13 0.00 0.00
2:01 pm 14:01 Cloudy with Rain 39 4 N/A N/A S 10 17 30.07 1018 6 10 0.00 0.00
2:56 pm 14:56 Cloudy with Light Rain 39 4 N/A N/A SSE 7 11 30.05 1018 5 8 0.00 0.00
3:56 pm 15:56 Cloudy with Light Rain 39 4 N/A N/A E 5 7 30.04 1017 4 6 0.00 0.00
4:06 pm 16:06 Cloudy with Light Rain 39 4 N/A N/A Calm 30.07 1018 2 3 0.00 0.00
4:43 pm 16:43 Cloudy with Light Rain 37 3 N/A N/A NE 3 6 30.07 1018 2 2 0.00 0.00
4:56 pm 16:56 Cloudy with Light Rain 37 3 N/A N/A E 5 7 30.05 1018 1 2 0.00 0.00
5:07 pm 17:07 Cloudy with Light Rain 37 3 N/A N/A E 6 9 30.06 1018 1 1 0.00 0.00
5:26 pm 17:26 Cloudy with Light Rain 37 3 N/A N/A E 5 7 30.07 1018 1 2 0.00 0.00
5:36 pm 17:36 Cloudy with Rain 37 3 N/A N/A ESE 5 7 30.07 1018 1 1 0.00 0.00
5:56 pm 17:56 Cloudy with Light Rain 37 3 N/A N/A ESE 7 11 30.06 1018 1 2 0.00 0.00
6:03 pm 18:03 Cloudy with Light Rain 37 3 N/A N/A SE 6 9 30.07 1018 1 2 0.00 0.00
6:16 pm 18:16 Cloudy with Rain 37 3 N/A N/A SE 8 13 30.07 1018 3 4 0.00 0.00
6:25 pm 18:25 Cloudy with Light Rain 37 3 N/A N/A SE 8 13 30.07 1018 3 5 0.00 0.00
6:56 pm 18:56 Cloudy with Light Rain 37 3 N/A N/A SE 8 13 30.06 1018 4 6 0.00 0.00
7:14 pm 19:14 Cloudy with Light Rain 37 3 N/A N/A SSE 8 13 30.07 1018 6 10 0.00 0.00
7:56 pm 19:56 Cloudy with Light Rain 39 4 N/A N/A SSE 8 13 30.05 1018 6 10 0.00 0.00
8:14 pm 20:14 Cloudy with Light Rain 39 4 N/A N/A S 9 15 30.07 1018 6 10 0.00 0.00
8:23 pm 20:23 Cloudy with Light Rain 39 4 N/A N/A S 8 13 30.07 1018 7 11 0.00 0.00
8:56 pm 20:56 Cloudy with Light Rain 39 4 N/A N/A S 8 13 30.06 1018 6 10 0.00 0.00
9:09 pm 21:09 Cloudy with Light Rain 39 4 N/A N/A S 7 11 30.07 1018 6 10 0.00 0.00
9:56 pm 21:56 Cloudy with Light Rain 39 4 N/A N/A NW 6 9 30.08 1019 3 5 0.00 0.00
10:10 pm 22:10 Cloudy with Light Rain 39 4 N/A N/A NW 5 7 30.10 1019 3 4 0.00 0.00
10:25 pm 22:25 Cloudy with Light Rain 39 4 N/A N/A N 5 7 30.10 1019 1 2 0.00 0.00
10:35 pm 22:35 Cloudy with Light Rain 39 4 N/A N/A NNW 5 7 30.10 1019 1 1 0.00 0.00
10:41 pm 22:41 Cloudy with Light Rain 39 4 N/A N/A NNW 8 13 30.10 1019 1 2 0.00 0.00
10:49 pm 22:49 Cloudy with Light Rain 39 4 N/A N/A NNW 9 15 30.10 1019 3 5 0.00 0.00
10:56 pm 22:56 Cloudy with Light Rain 37 3 N/A N/A NNW 7 11 30.10 1019 4 6 0.00 0.00
11:27 pm 23:27 Cloudy with Light Rain 34 1 N/A N/A N 10 17 30.13 1020 7 11 0.00 0.00
11:56 pm 23:56 Cloudy with Light Rain 34 1 N/A N/A N 14 22 30.11 1020 7 11 0.00 0.00

Powered by AerisWeather